Location: Ferma
(41.9500°N, 44.5167°E)
Time: 18:29:57
(UTC+00:00)

CZ-4C R/B - Pass Details

Date: 24 October 2021
Orbit: 403 x 482 km, 97.7° (Epoch: 01 December)

Event Time Altitude Azimuth Distance (km) Brightness Sun altitude
Rises 15:24:32 0° 11° (N) 2,452 6.5 -15.1°
Reaches altitude 10° 15:26:35 10° 11° (N) 1,562 5.5 -15.5°
Maximum altitude 15:29:56 82° 284° (WNW) 440 2.8 -16.1°
Drops below altitude 10° 15:33:08 10° 196° (SSW) 1,505 5.8 -16.7°
Sets 15:35:06 0° 196° (SSW) 2,352 6.8 -17.0°
